When you browse on this site, cookies collect data to enhance your experience and personalize the content and advertising you see.
Visit our Privacy Policy to learn more. By continuing to use the site, you agree to this use of cookies and data.
  • In Hungary
  • List of Countries
  • For 7 days
  • Water Temperature
  • Satellite Maps
  • Weather Map
  • News
  • Weather Widgets
  • user-avatar
    Login

    Hourly Weather San Fernando del Valle de Catamarca

    Today, 17 July, Wednesday

    Time Temperature Precipitation Wind Pressure Humidity
    00:00 +14°C° 0 mm 3 mps 707 mmHg 65%
    01:00 +14°C° 0 mm 3 mps 707 mmHg 66%
    02:00 +14°C° 0 mm 2 mps 707 mmHg 66%
    03:00 +14°C° 0 mm 2 mps 707 mmHg 66%
    04:00 +14°C° 0 mm 2 mps 706 mmHg 67%
    05:00 +14°C° 0 mm 2 mps 706 mmHg 67%
    06:00 +14°C° 0 mm 2 mps 706 mmHg 65%
    07:00 +15°C° 0 mm 2 mps 707 mmHg 63%
    08:00 +15°C° 0 mm 2 mps 707 mmHg 60%
    09:00 +18°C° 0 mm 2 mps 707 mmHg 54%
    10:00 +20°C° 0 mm 3 mps 707 mmHg 48%
    11:00 +24°C° 0 mm 3 mps 707 mmHg 42%
    12:00 +25°C° 0 mm 3 mps 707 mmHg 41%
    13:00 +25°C° 0 mm 3 mps 706 mmHg 40%
    14:00 +26°C° 0 mm 4 mps 705 mmHg 39%
    15:00 +25°C° 0 mm 4 mps 705 mmHg 43%
    16:00 +23°C° 0 mm 4 mps 704 mmHg 47%
    17:00 +22°C° 0 mm 3 mps 704 mmHg 51%
    18:00 +21°C° 0 mm 4 mps 704 mmHg 51%
    19:00 +20°C° 0 mm 4 mps 704 mmHg 50%
    20:00 +17°C° 0 mm 5 mps 704 mmHg 50%
    21:00 +17°C° 0 mm 5 mps 704 mmHg 50%
    22:00 +18°C° 0 mm 4 mps 704 mmHg 49%
    23:00 +18°C° 0 mm 4 mps 704 mmHg 48%

    Tomorrow, 18 July, Thursday

    Time Temperature Precipitation Wind Pressure Humidity
    00:00 +17°C° 0 mm 4 mps 704 mmHg 49%
    01:00 +17°C° 0 mm 3 mps 703 mmHg 49%
    02:00 +17°C° 0 mm 2 mps 703 mmHg 50%
    03:00 +16°C° 0 mm 2 mps 703 mmHg 51%
    04:00 +16°C° 0 mm 1 mps 703 mmHg 53%
    05:00 +16°C° 0 mm 1 mps 703 mmHg 54%
    06:00 +16°C° 0 mm 1 mps 703 mmHg 52%
    07:00 +18°C° 0 mm 1 mps 704 mmHg 49%
    08:00 +16°C° 0 mm 0 mps 705 mmHg 47%
    09:00 +18°C° 0 mm 2 mps 706 mmHg 48%
    10:00 +19°C° 0 mm 4 mps 706 mmHg 50%
    11:00 +20°C° 0 mm 5 mps 707 mmHg 52%
    12:00 +20°C° 0 mm 6 mps 707 mmHg 50%
    13:00 +20°C° 0 mm 7 mps 707 mmHg 49%
    14:00 +21°C° 0 mm 8 mps 708 mmHg 48%
    15:00 +20°C° 0 mm 7 mps 708 mmHg 51%
    16:00 +19°C° 0 mm 6 mps 708 mmHg 53%
    17:00 +19°C° 0 mm 4 mps 708 mmHg 56%
    18:00 +17°C° 0 mm 3 mps 708 mmHg 60%
    19:00 +16°C° 0 mm 2 mps 709 mmHg 64%
    20:00 +14°C° 0 mm 1 mps 709 mmHg 68%
    21:00 +13°C° 0 mm 1 mps 709 mmHg 69%
    22:00 +13°C° 0 mm 1 mps 709 mmHg 70%
    23:00 +12°C° 0 mm 1 mps 710 mmHg 70%

    Day after tomorrow, 19 July, Friday

    Time Temperature Precipitation Wind Pressure Humidity
    00:00 +12°C° 0 mm 1 mps 709 mmHg 71%
    01:00 +11°C° 0 mm 1 mps 709 mmHg 71%
    02:00 +11°C° 0 mm 1 mps 708 mmHg 71%
    03:00 +11°C° 0 mm 1 mps 708 mmHg 73%
    04:00 +11°C° 0 mm 1 mps 707 mmHg 75%
    05:00 +10°C° 0 mm 2 mps 707 mmHg 77%
    06:00 +12°C° 0 mm 2 mps 707 mmHg 75%
    07:00 +13°C° 0 mm 2 mps 707 mmHg 73%
    08:00 +12°C° 0 mm 3 mps 707 mmHg 72%
    09:00 +16°C° 0 mm 3 mps 707 mmHg 64%
    10:00 +18°C° 0 mm 4 mps 707 mmHg 56%
    11:00 +20°C° 0 mm 4 mps 706 mmHg 48%
    12:00 +21°C° 0 mm 4 mps 705 mmHg 47%
    13:00 +22°C° 0 mm 4 mps 704 mmHg 46%
    14:00 +22°C° 0 mm 3 mps 703 mmHg 45%
    15:00 +22°C° 0 mm 3 mps 703 mmHg 47%
    16:00 +21°C° 0 mm 3 mps 702 mmHg 49%
    17:00 +21°C° 0 mm 3 mps 702 mmHg 51%
    18:00 +19°C° 0 mm 4 mps 702 mmHg 54%
    19:00 +18°C° 0 mm 4 mps 701 mmHg 56%
    20:00 +17°C° 0 mm 4 mps 701 mmHg 59%
    21:00 +17°C° 0 mm 4 mps 701 mmHg 59%
    22:00 +18°C° 0 mm 4 mps 701 mmHg 58%
    23:00 +18°C° 0 mm 4 mps 700 mmHg 58%

    20 July, Saturday

    Time Temperature Precipitation Wind Pressure Humidity
    00:00 +17°C° 0 mm 3 mps 700 mmHg 59%
    01:00 +17°C° 0 mm 3 mps 699 mmHg 60%
    02:00 +16°C° 0 mm 2 mps 699 mmHg 62%
    03:00 +16°C° 0 mm 2 mps 698 mmHg 62%
    04:00 +16°C° 0 mm 2 mps 698 mmHg 62%
    05:00 +15°C° 0 mm 1 mps 698 mmHg 62%
    06:00 +16°C° 0 mm 1 mps 698 mmHg 60%
    07:00 +16°C° 0 mm 1 mps 698 mmHg 58%
    08:00 +18°C° 0 mm 1 mps 698 mmHg 56%
    09:00 +20°C° 0 mm 1 mps 699 mmHg 52%
    10:00 +22°C° 0 mm 1 mps 699 mmHg 47%
    11:00 +25°C° 0 mm 1 mps 699 mmHg 43%
    12:00 +25°C° 0 mm 2 mps 698 mmHg 41%
    13:00 +26°C° 0 mm 2 mps 698 mmHg 38%
    14:00 +26°C° 0 mm 2 mps 697 mmHg 36%
    15:00 +25°C° 0 mm 1 mps 697 mmHg 38%
    16:00 +25°C° 0 mm 1 mps 697 mmHg 41%
    17:00 +24°C° 0 mm 1 mps 696 mmHg 43%
    18:00 +22°C° 0 mm 1 mps 696 mmHg 47%
    19:00 +21°C° 0 mm 1 mps 696 mmHg 52%
    20:00 +19°C° 0 mm 1 mps 696 mmHg 56%
    21:00 +19°C° 0 mm 1 mps 696 mmHg 57%
    22:00 +19°C° 0 mm 1 mps 697 mmHg 58%
    23:00 +18°C° 0 mm 2 mps 697 mmHg 59%

    21 July, Sunday

    Time Temperature Precipitation Wind Pressure Humidity
    00:00 +18°C° 0 mm 1 mps 696 mmHg 61%
    01:00 +16°C° 0 mm 1 mps 696 mmHg 63%
    02:00 +16°C° 0 mm 1 mps 696 mmHg 64%
    03:00 +15°C° 0 mm 1 mps 696 mmHg 64%
    04:00 +15°C° 0 mm 1 mps 696 mmHg 64%
    05:00 +15°C° 0 mm 2 mps 696 mmHg 64%
    06:00 +15°C° 0 mm 2 mps 697 mmHg 64%
    07:00 +15°C° 0 mm 2 mps 697 mmHg 63%
    08:00 +16°C° 0 mm 1 mps 698 mmHg 63%
    09:00 +18°C° 0 mm 1 mps 698 mmHg 60%
    10:00 +20°C° 0 mm 1 mps 699 mmHg 57%
    11:00 +21°C° 0 mm 1 mps 699 mmHg 54%
    12:00 +22°C° 0 mm 1 mps 699 mmHg 51%
    13:00 +23°C° 0 mm 1 mps 698 mmHg 49%
    14:00 +23°C° 0 mm 2 mps 698 mmHg 46%
    15:00 +23°C° 0 mm 2 mps 698 mmHg 51%
    16:00 +22°C° 0 mm 1 mps 698 mmHg 56%
    17:00 +21°C° 0 mm 1 mps 698 mmHg 61%
    18:00 +20°C° 0 mm 1 mps 698 mmHg 67%
    19:00 +19°C° 0 mm 1 mps 699 mmHg 73%
    20:00 +18°C° 0 mm 1 mps 699 mmHg 78%
    21:00 +18°C° 0 mm 1 mps 700 mmHg 78%
    22:00 +17°C° 0 mm 2 mps 700 mmHg 78%
    23:00 +17°C° 0 mm 2 mps 701 mmHg 78%

    22 July, Monday

    Time Temperature Precipitation Wind Pressure Humidity
    00:00 +14°C° 0 mm 3 mps 701 mmHg 77%
    01:00 +13°C° 0 mm 3 mps 701 mmHg 77%
    02:00 +12°C° 0 mm 4 mps 701 mmHg 77%
    03:00 +12°C° 0 mm 4 mps 701 mmHg 76%
    04:00 +11°C° 0 mm 4 mps 701 mmHg 76%
    05:00 +9°C° 0 mm 5 mps 701 mmHg 75%
    06:00 +9°C° 0 mm 5 mps 702 mmHg 70%
    07:00 +8°C° 0 mm 5 mps 703 mmHg 65%
    08:00 +8°C° 0 mm 6 mps 704 mmHg 60%
    09:00 +9°C° 0 mm 6 mps 705 mmHg 58%
    10:00 +9°C° 0 mm 7 mps 706 mmHg 55%
    11:00 +10°C° 0 mm 7 mps 707 mmHg 53%
    12:00 +10°C° 0 mm 7 mps 706 mmHg 53%
    13:00 +10°C° 0 mm 7 mps 706 mmHg 53%
    14:00 +10°C° 0 mm 7 mps 706 mmHg 54%
    15:00 +9°C° 0 mm 7 mps 707 mmHg 58%
    16:00 +9°C° 0 mm 6 mps 707 mmHg 62%
    17:00 +8°C° 0 mm 5 mps 708 mmHg 66%
    18:00 +7°C° 0 mm 4 mps 708 mmHg 70%
    19:00 +6°C° 0 mm 4 mps 709 mmHg 74%
    20:00 +7°C° 0 mm 3 mps 709 mmHg 77%
    21:00 +5°C° 0.1 mm 3 mps 710 mmHg 80%
    22:00 +6°C° 0.1 mm 2 mps 710 mmHg 83%
    23:00 +6°C° 0.1 mm 2 mps 711 mmHg 87%
    Show more